STATION,STATION_NAME,DATE,DLY-PRCP-25PCTL,DLY-PRCP-50PCTL,DLY-PRCP-75PCTL,MTD-PRCP-NORMAL,YTD-PRCP-NORMAL,DLY-PRCP-PCTALL-GE001HI,DLY-PRCP-PCTALL-GE010HI,DLY-PRCP-PCTALL-GE050HI,DLY-PRCP-PCTALL-GE100HI,DLY-TAVG-NORMAL,DLY-DUTR-NORMAL,DLY-TMAX-NORMAL,DLY-TMIN-NORMAL,DLY-TAVG-STDDEV,DLY-DUTR-STDDEV,DLY-TMAX-STDDEV,DLY-TMIN-STDDEV
GHCND:USC00354329,JOSEPH OR US,20100101,0.05,0.18,0.38,0.10,0.10,402,152,8,0,-3.9,-9.7,0.1,-7.9,-13.4,-14.5,-13.1,-13.2
GHCND:USC00354329,JOSEPH OR US,20100102,0.05,0.18,0.38,0.20,0.20,400,151,8,0,-3.9,-9.7,0.2,-7.9,-13.5,-14.5,-13.1,-13.3
GHCND:USC00354329,JOSEPH OR US,20100103,0.05,0.18,0.38,0.28,0.28,399,149,8,0,-3.8,-9.8,0.2,-7.8,-13.5,-14.5,-13.1,-13.3
GHCND:USC00354329,JOSEPH OR US,20100104,0.05,0.18,0.38,0.38,0.38,396,148,8,0,-3.8,-9.8,0.2,-7.8,-13.5,-14.5,-13.1,-13.3
GHCND:USC00354329,JOSEPH OR US,20100105,0.05,0.18,0.38,0.48,0.48,394,146,8,0,-3.7,-9.8,0.2,-7.7,-13.5,-14.5,-13.1,-13.3
GHCND:USC00354329,JOSEPH OR US,20100106,0.05,0.18,0.38,0.56,0.56,390,144,8,0,-3.7,-9.9,0.3,-7.6,-13.6,-14.5,-13.2,-13.3
GHCND:USC00354329,JOSEPH OR US,20100107,0.05,0.15,0.38,0.66,0.66,388,143,8,0,-3.6,-9.9,0.3,-7.6,-13.6,-14.5,-13.2,-13.3
GHCND:USC00354329,JOSEPH OR US,20100108,0.05,0.15,0.36,0.76,0.76,385,141,8,0,-3.6,-9.9,0.4,-7.5,-13.6,-14.5,-13.2,-13.3
GHCND:USC00354329,JOSEPH OR US,20100109,0.05,0.15,0.36,0.84,0.84,383,140,8,0,-3.5,-9.9,0.4,-7.4,-13.6,-14.5,-13.2,-13.3
GHCND:USC00354329,JOSEPH OR US,20100110,0.05,0.15,0.36,0.94,0.94,381,138,8,0,-3.4,-9.9,0.5,-7.4,-13.6,-14.5,-13.2,-13.3
GHCND:USC00354329,JOSEPH OR US,20100111,0.05,0.15,0.36,1.04,1.04,378,137,8,0,-3.4,-9.9,0.6,-7.3,-13.6,-14.5,-13.3,-13.3
GHCND:USC00354329,JOSEPH OR US,20100112,0.05,0.15,0.36,1.12,1.12,376,136,7,0,-3.3,-9.9,0.6,-7.3,-13.6,-14.5,-13.3,-13.2
GHCND:USC00354329,JOSEPH OR US,20100113,0.05,0.15,0.36,1.22,1.22,375,135,7,0,-3.3,-9.9,0.7,-7.2,-13.6,-14.5,-13.3,-13.2
GHCND:USC00354329,JOSEPH OR US,20100114,0.05,0.15,0.36,1.32,1.32,373,133,7,0,-3.2,-9.8,0.7,-7.2,-13.6,-14.5,-13.3,-13.2
GHCND:USC00354329,JOSEPH OR US,20100115,0.05,0.15,0.36,1.42,1.42,372,133,7,-9999,-3.2,-9.8,0.8,-7.2,-13.5,-14.5,-13.3,-13.1
GHCND:USC00354329,JOSEPH OR US,20100116,0.05,0.15,0.33,1.52,1.52,370,132,7,-9999,-3.1,-9.8,0.9,-7.1,-13.5,-14.4,-13.3,-13.1
GHCND:USC00354329,JOSEPH OR US,20100117,0.05,0.15,0.33,1.63,1.63,369,131,7,-9999,-3.1,-9.7,0.9,-7.1,-13.5,-14.4,-13.3,-13.0
GHCND:USC00354329,JOSEPH OR US,20100118,0.05,0.15,0.33,1.73,1.73,368,130,6,-9999,-3.0,-9.7,1.1,-7.1,-13.5,-14.4,-13.3,-13.0
GHCND:USC00354329,JOSEPH OR US,20100119,0.05,0.15,0.33,1.80,1.80,367,129,6,-9999,-2.9,-9.6,1.1,-7.1,-13.5,-14.4,-13.3,-12.9
GHCND:USC00354329,JOSEPH OR US,20100120,0.05,0.15,0.33,1.90,1.90,366,128,6,-9999,-2.9,-9.6,1.2,-7.1,-13.4,-14.4,-13.3,-12.9
GHCND:USC00354329,JOSEPH OR US,20100121,0.05,0.15,0.33,1.98,1.98,365,128,6,-9999,-2.9,-9.4,1.3,-7.0,-13.4,-14.4,-13.4,-12.9
GHCND:USC00354329,JOSEPH OR US,20100122,0.05,0.15,0.33,2.08,2.08,363,126,6,-9999,-2.8,-9.4,1.4,-7.0,-13.4,-14.3,-13.4,-12.8
GHCND:USC00354329,JOSEPH OR US,20100123,0.05,0.15,0.33,2.18,2.18,362,126,6,-9999,-2.8,-9.3,1.4,-7.0,-13.4,-14.3,-13.4,-12.8
GHCND:USC00354329,JOSEPH OR US,20100124,0.05,0.15,0.33,2.29,2.29,360,125,6,-9999,-2.7,-9.2,1.6,-7.0,-13.4,-14.3,-13.4,-12.8
GHCND:USC00354329,JOSEPH OR US,20100125,0.05,0.15,0.33,2.39,2.39,358,124,6,-9999,-2.7,-9.1,1.7,-7.0,-13.5,-14.3,-13.4,-12.8
GHCND:USC00354329,JOSEPH OR US,20100126,0.05,0.13,0.33,2.51,2.51,356,123,6,-9999,-2.6,-9.0,1.8,-7.0,-13.5,-14.3,-13.4,-12.8
GHCND:USC00354329,JOSEPH OR US,20100127,0.05,0.13,0.33,2.62,2.62,354,122,6,-9999,-2.6,-8.9,1.9,-7.1,-13.5,-14.3,-13.4,-12.8
GHCND:USC00354329,JOSEPH OR US,20100128,0.05,0.13,0.33,2.72,2.72,352,122,6,-9999,-2.6,-8.8,2.0,-7.1,-13.5,-14.3,-13.4,-12.8
GHCND:USC00354329,JOSEPH OR US,20100129,0.05,0.13,0.33,2.82,2.82,350,121,6,-9999,-2.5,-8.6,2.1,-7.1,-13.5,-14.3,-13.4,-12.8
GHCND:USC00354329,JOSEPH OR US,20100130,0.05,0.13,0.33,2.92,2.92,349,120,6,-9999,-2.4,-8.5,2.2,-7.1,-13.5,-14.3,-13.5,-12.8
GHCND:USC00354329,JOSEPH OR US,20100131,0.05,0.13,0.36,3.02,3.02,347,119,6,-9999,-2.4,-8.4,2.3,-7.1,-13.5,-14.3,-13.5,-12.8
GHCND:USC00354329,JOSEPH OR US,20100201,0.05,0.15,0.36,0.10,3.12,346,119,6,2,-2.3,-8.3,2.4,-7.1,-13.5,-14.3,-13.5,-12.8
GHCND:USC00354329,JOSEPH OR US,20100202,0.05,0.15,0.36,0.20,3.23,344,118,6,2,-2.3,-8.1,2.6,-7.1,-13.6,-14.3,-13.5,-12.8
GHCND:USC00354329,JOSEPH OR US,20100203,0.05,0.15,0.36,0.33,3.35,343,118,6,2,-2.2,-8.0,2.7,-7.1,-13.6,-14.3,-13.6,-12.8
GHCND:USC00354329,JOSEPH OR US,20100204,0.05,0.15,0.36,0.43,3.45,343,118,6,2,-2.1,-7.9,2.8,-7.1,-13.6,-14.3,-13.6,-12.8
GHCND:USC00354329,JOSEPH OR US,20100205,0.05,0.15,0.36,0.53,3.56,341,119,6,2,-2.1,-7.7,2.9,-7.1,-13.6,-14.3,-13.6,-12.8
GHCND:USC00354329,JOSEPH OR US,20100206,0.05,0.15,0.36,0.64,3.66,340,119,6,2,-2.0,-7.6,3.1,-7.1,-13.6,-14.3,-13.6,-12.8
GHCND:USC00354329,JOSEPH OR US,20100207,0.05,0.15,0.36,0.74,3.76,339,120,6,2,-1.9,-7.5,3.2,-7.1,-13.6,-14.3,-13.6,-12.8
GHCND:USC00354329,JOSEPH OR US,20100208,0.05,0.15,0.36,0.84,3.86,338,121,6,2,-1.8,-7.3,3.4,-7.1,-13.6,-14.3,-13.6,-12.8
GHCND:USC00354329,JOSEPH OR US,20100209,0.05,0.15,0.36,0.94,3.96,338,121,6,2,-1.7,-7.2,3.6,-7.0,-13.6,-14.4,-13.6,-12.9
GHCND:USC00354329,JOSEPH OR US,20100210,0.05,0.15,0.36,1.04,4.06,337,122,6,2,-1.7,-7.1,3.7,-7.0,-13.7,-14.4,-13.7,-12.9
GHCND:USC00354329,JOSEPH OR US,20100211,0.05,0.15,0.36,1.14,4.17,337,122,6,2,-1.6,-7.0,3.8,-6.9,-13.7,-14.4,-13.7,-12.9
GHCND:USC00354329,JOSEPH OR US,20100212,0.05,0.15,0.38,1.22,4.24,337,123,6,2,-1.4,-6.9,4.0,-6.9,-13.7,-14.4,-13.7,-12.9
GHCND:USC00354329,JOSEPH OR US,20100213,0.05,0.15,0.38,1.32,4.34,338,124,6,2,-1.3,-6.8,4.2,-6.8,-13.7,-14.4,-13.8,-13.0
GHCND:USC00354329,JOSEPH OR US,20100214,0.05,0.15,0.38,1.40,4.42,339,125,6,2,-1.2,-6.7,4.3,-6.8,-13.8,-14.5,-13.8,-13.1
GHCND:USC00354329,JOSEPH OR US,20100215,0.05,0.15,0.38,1.50,4.52,340,125,6,2,-1.1,-6.6,4.5,-6.7,-13.8,-14.5,-13.8,-13.1
GHCND:USC00354329,JOSEPH OR US,20100216,0.05,0.15,0.38,1.57,4.60,340,125,6,2,-1.0,-6.5,4.7,-6.6,-13.8,-14.6,-13.8,-13.2
GHCND:USC00354329,JOSEPH OR US,20100217,0.05,0.15,0.38,1.68,4.70,341,125,6,1,-0.8,-6.4,4.8,-6.6,-13.9,-14.6,-13.8,-13.2
GHCND:USC00354329,JOSEPH OR US,20100218,0.05,0.15,0.36,1.78,4.80,341,126,6,1,-0.7,-6.3,5.0,-6.4,-13.9,-14.6,-13.8,-13.3
GHCND:USC00354329,JOSEPH OR US,20100219,0.05,0.15,0.36,1.85,4.88,342,127,5,1,-0.6,-6.2,5.2,-6.3,-13.9,-14.6,-13.8,-13.3
GHCND:USC00354329,JOSEPH OR US,20100220,0.05,0.18,0.36,1.96,4.98,343,127,5,1,-0.4,-6.2,5.4,-6.2,-13.9,-14.6,-13.8,-13.3
GHCND:USC00354329,JOSEPH OR US,20100221,0.05,0.18,0.36,2.06,5.08,344,128,5,1,-0.3,-6.1,5.6,-6.1,-13.9,-14.7,-13.8,-13.4
GHCND:USC00354329,JOSEPH OR US,20100222,0.05,0.18,0.36,2.13,5.16,346,129,5,1,-0.1,-6.1,5.7,-6.0,-13.9,-14.7,-13.8,-13.4
GHCND:USC00354329,JOSEPH OR US,20100223,0.05,0.18,0.36,2.21,5.23,347,130,5,1,0.1,-6.0,5.9,-5.9,-13.9,-14.7,-13.8,-13.4
GHCND:USC00354329,JOSEPH OR US,20100224,0.08,0.18,0.36,2.31,5.33,349,132,5,1,0.2,-5.9,6.1,-5.7,-13.9,-14.7,-13.8,-13.4
GHCND:USC00354329,JOSEPH OR US,20100225,0.08,0.18,0.36,2.39,5.41,351,133,5,1,0.3,-5.9,6.3,-5.6,-13.9,-14.7,-13.8,-13.5
GHCND:USC00354329,JOSEPH OR US,20100226,0.08,0.18,0.36,2.46,5.49,352,134,5,1,0.5,-5.9,6.4,-5.4,-13.9,-14.7,-13.8,-13.5
GHCND:USC00354329,JOSEPH OR US,20100227,0.08,0.18,0.36,2.57,5.59,354,136,5,1,0.7,-5.8,6.7,-5.3,-13.9,-14.7,-13.7,-13.5
GHCND:USC00354329,JOSEPH OR US,20100228,0.08,0.18,0.36,2.64,5.66,357,138,5,1,0.8,-5.8,6.8,-5.2,-13.9,-14.7,-13.7,-13.6
GHCND:USC00354329,JOSEPH OR US,20100301,0.08,0.18,0.36,0.10,5.77,362,143,5,0,1.0,-5.8,7.0,-5.0,-13.9,-14.7,-13.7,-13.6
GHCND:USC00354329,JOSEPH OR US,20100302,0.08,0.18,0.36,0.18,5.84,365,145,5,0,1.2,-5.8,7.2,-4.8,-13.9,-14.7,-13.6,-13.6
GHCND:USC00354329,JOSEPH OR US,20100303,0.08,0.18,0.38,0.28,5.94,368,146,5,0,1.3,-5.8,7.3,-4.7,-13.9,-14.6,-13.6,-13.6
GHCND:USC00354329,JOSEPH OR US,20100304,0.08,0.18,0.38,0.38,6.05,370,148,6,0,1.5,-5.7,7.6,-4.5,-13.9,-14.6,-13.6,-13.6
GHCND:USC00354329,JOSEPH OR US,20100305,0.08,0.18,0.38,0.48,6.15,374,149,6,0,1.7,-5.7,7.7,-4.3,-13.9,-14.6,-13.5,-13.7
GHCND:USC00354329,JOSEPH OR US,20100306,0.08,0.18,0.38,0.58,6.25,376,151,6,0,1.8,-5.7,7.9,-4.2,-13.9,-14.5,-13.5,-13.7
GHCND:USC00354329,JOSEPH OR US,20100307,0.08,0.18,0.38,0.66,6.32,379,152,7,0,2.0,-5.7,8.1,-4.0,-13.9,-14.5,-13.4,-13.7
GHCND:USC00354329,JOSEPH OR US,20100308,0.08,0.18,0.38,0.76,6.43,381,154,7,0,2.2,-5.7,8.2,-3.9,-13.9,-14.4,-13.4,-13.8
GHCND:USC00354329,JOSEPH OR US,20100309,0.08,0.18,0.38,0.86,6.53,383,155,7,0,2.3,-5.7,8.4,-3.7,-13.9,-14.4,-13.4,-13.8
GHCND:USC00354329,JOSEPH OR US,20100310,0.08,0.18,0.38,0.97,6.63,385,156,7,0,2.5,-5.7,8.6,-3.6,-13.9,-14.4,-13.3,-13.8
GHCND:USC00354329,JOSEPH OR US,20100311,0.08,0.18,0.38,1.07,6.73,388,157,8,0,2.6,-5.7,8.7,-3.4,-13.9,-14.3,-13.3,-13.9
GHCND:USC00354329,JOSEPH OR US,20100312,0.08,0.18,0.38,1.17,6.83,390,158,8,0,2.8,-5.7,8.8,-3.3,-13.9,-14.3,-13.2,-13.9
GHCND:USC00354329,JOSEPH OR US,20100313,0.08,0.18,0.38,1.30,6.96,392,160,8,0,2.9,-5.7,9.0,-3.2,-13.9,-14.3,-13.2,-13.9
GHCND:USC00354329,JOSEPH OR US,20100314,0.08,0.18,0.38,1.40,7.06,394,162,8,0,3.1,-5.6,9.1,-3.0,-13.9,-14.2,-13.2,-13.9
GHCND:USC00354329,JOSEPH OR US,20100315,0.08,0.18,0.38,1.52,7.19,396,163,9,0,3.2,-5.6,9.3,-2.9,-13.9,-14.2,-13.1,-14.0
GHCND:USC00354329,JOSEPH OR US,20100316,0.08,0.18,0.38,1.65,7.32,398,166,9,0,3.3,-5.6,9.4,-2.8,-13.9,-14.2,-13.1,-14.0
GHCND:USC00354329,JOSEPH OR US,20100317,0.08,0.18,0.41,1.78,7.44,401,168,10,0,3.4,-5.6,9.6,-2.7,-13.9,-14.1,-13.1,-14.1
GHCND:USC00354329,JOSEPH OR US,20100318,0.08,0.18,0.41,1.88,7.54,404,170,10,0,3.6,-5.6,9.7,-2.6,-13.9,-14.1,-13.0,-14.1
GHCND:USC00354329,JOSEPH OR US,20100319,0.08,0.18,0.41,2.01,7.67,406,173,10,0,3.7,-5.5,9.8,-2.4,-13.9,-14.1,-13.0,-14.1
GHCND:USC00354329,JOSEPH OR US,20100320,0.08,0.18,0.41,2.13,7.80,409,175,11,0,3.8,-5.5,9.9,-2.4,-14.0,-14.0,-12.9,-14.1
GHCND:USC00354329,JOSEPH OR US,20100321,0.08,0.20,0.41,2.24,7.90,411,178,11,0,3.9,-5.4,10.1,-2.3,-14.0,-14.0,-12.9,-14.2
GHCND:USC00354329,JOSEPH OR US,20100322,0.08,0.20,0.41,2.36,8.03,414,180,12,0,4.0,-5.4,10.2,-2.2,-14.0,-13.9,-12.9,-14.2
GHCND:USC00354329,JOSEPH OR US,20100323,0.08,0.20,0.43,2.46,8.13,417,183,13,0,4.1,-5.4,10.3,-2.1,-14.0,-13.9,-12.9,-14.2
GHCND:USC00354329,JOSEPH OR US,20100324,0.08,0.20,0.43,2.59,8.25,420,185,13,0,4.2,-5.3,10.4,-2.1,-14.0,-13.9,-12.9,-14.3
GHCND:USC00354329,JOSEPH OR US,20100325,0.08,0.20,0.43,2.72,8.38,423,187,14,0,4.2,-5.3,10.5,-2.0,-14.0,-13.9,-12.8,-14.3
GHCND:USC00354329,JOSEPH OR US,20100326,0.08,0.20,0.43,2.84,8.51,426,190,15,0,4.3,-5.2,10.6,-1.9,-14.0,-13.8,-12.8,-14.3
GHCND:USC00354329,JOSEPH OR US,20100327,0.08,0.20,0.43,2.97,8.64,429,192,16,0,4.4,-5.2,10.7,-1.9,-14.1,-13.8,-12.8,-14.3
GHCND:USC00354329,JOSEPH OR US,20100328,0.08,0.20,0.43,3.10,8.76,431,193,17,0,4.5,-5.1,10.8,-1.8,-14.1,-13.8,-12.8,-14.3
GHCND:USC00354329,JOSEPH OR US,20100329,0.08,0.20,0.43,3.23,8.89,434,194,18,0,4.6,-5.1,10.9,-1.8,-14.1,-13.8,-12.8,-14.4
GHCND:USC00354329,JOSEPH OR US,20100330,0.08,0.20,0.43,3.38,9.04,436,196,18,0,4.6,-4.9,11.1,-1.8,-14.1,-13.8,-12.8,-14.4
GHCND:USC00354329,JOSEPH OR US,20100331,0.08,0.20,0.43,3.51,9.17,437,198,19,0,4.7,-4.9,11.1,-1.7,-14.1,-13.8,-12.8,-14.4
GHCND:USC00354329,JOSEPH OR US,20100401,0.08,0.20,0.46,0.13,9.30,439,200,19,0,4.8,-4.8,11.2,-1.7,-14.1,-13.8,-12.7,-14.4
GHCND:USC00354329,JOSEPH OR US,20100402,0.08,0.20,0.46,0.25,9.42,441,202,20,0,4.8,-4.8,11.3,-1.7,-14.1,-13.8,-12.7,-14.4
GHCND:USC00354329,JOSEPH OR US,20100403,0.08,0.20,0.46,0.41,9.58,443,203,20,0,4.9,-4.7,11.4,-1.7,-14.1,-13.8,-12.7,-14.4
GHCND:USC00354329,JOSEPH OR US,20100404,0.08,0.20,0.46,0.53,9.70,445,205,21,0,4.9,-4.6,11.6,-1.6,-14.0,-13.8,-12.7,-14.4
GHCND:USC00354329,JOSEPH OR US,20100405,0.08,0.20,0.46,0.69,9.86,447,206,21,0,5.1,-4.6,11.7,-1.6,-14.0,-13.9,-12.7,-14.4
GHCND:USC00354329,JOSEPH OR US,20100406,0.08,0.20,0.46,0.81,9.98,449,208,21,0,5.1,-4.4,11.8,-1.6,-14.0,-13.9,-12.7,-14.4
GHCND:USC00354329,JOSEPH OR US,20100407,0.08,0.20,0.46,0.97,10.13,451,210,22,0,5.2,-4.4,11.9,-1.6,-14.0,-13.9,-12.7,-14.4
GHCND:USC00354329,JOSEPH OR US,20100408,0.08,0.20,0.46,1.12,10.29,454,212,22,0,5.2,-4.3,12.0,-1.5,-14.0,-13.9,-12.7,-14.4
GHCND:USC00354329,JOSEPH OR US,20100409,0.08,0.23,0.46,1.30,10.46,456,214,23,-9999,5.3,-4.2,12.1,-1.4,-13.9,-13.9,-12.6,-14.4
GHCND:USC00354329,JOSEPH OR US,20100410,0.08,0.23,0.46,1.45,10.62,458,216,23,-9999,5.4,-4.2,12.2,-1.4,-13.9,-13.9,-12.6,-14.4
GHCND:USC00354329,JOSEPH OR US,20100411,0.08,0.23,0.46,1.60,10.77,459,217,24,-9999,5.5,-4.1,12.3,-1.4,-13.9,-13.9,-12.6,-14.4
GHCND:USC00354329,JOSEPH OR US,20100412,0.08,0.23,0.46,1.75,10.92,460,218,24,-9999,5.6,-4.1,12.4,-1.3,-13.9,-13.9,-12.6,-14.4
GHCND:USC00354329,JOSEPH OR US,20100413,0.08,0.23,0.46,1.90,11.07,461,220,25,-9999,5.7,-4.0,12.6,-1.2,-13.9,-13.9,-12.6,-14.4
GHCND:USC00354329,JOSEPH OR US,20100414,0.08,0.23,0.46,2.06,11.23,461,221,25,-9999,5.7,-3.9,12.7,-1.2,-13.9,-13.9,-12.5,-14.5
GHCND:USC00354329,JOSEPH OR US,20100415,0.08,0.23,0.46,2.18,11.35,460,221,26,-9999,5.8,-3.9,12.8,-1.1,-13.9,-13.9,-12.5,-14.5
GHCND:USC00354329,JOSEPH OR US,20100416,0.08,0.23,0.48,2.34,11.51,460,222,27,-9999,5.9,-3.8,12.9,-1.1,-13.9,-13.9,-12.5,-14.5
GHCND:USC00354329,JOSEPH OR US,20100417,0.08,0.23,0.48,2.49,11.66,459,222,27,-9999,6.1,-3.8,13.1,-0.9,-13.9,-14.0,-12.5,-14.5
GHCND:USC00354329,JOSEPH OR US,20100418,0.08,0.23,0.48,2.64,11.81,458,223,28,-9999,6.2,-3.7,13.2,-0.8,-13.9,-14.0,-12.5,-14.5
GHCND:USC00354329,JOSEPH OR US,20100419,0.08,0.23,0.48,2.82,11.99,457,223,28,-9999,6.3,-3.7,13.3,-0.8,-13.9,-14.0,-12.5,-14.5
GHCND:USC00354329,JOSEPH OR US,20100420,0.08,0.23,0.48,2.97,12.14,456,223,29,-9999,6.4,-3.7,13.4,-0.7,-13.9,-14.0,-12.5,-14.5
GHCND:USC00354329,JOSEPH OR US,20100421,0.08,0.23,0.48,3.12,12.29,454,223,29,-9999,6.6,-3.7,13.6,-0.5,-13.9,-13.9,-12.4,-14.5
GHCND:USC00354329,JOSEPH OR US,20100422,0.08,0.23,0.48,3.30,12.47,452,223,30,-9999,6.7,-3.7,13.7,-0.4,-13.9,-13.9,-12.4,-14.5
GHCND:USC00354329,JOSEPH OR US,20100423,0.08,0.25,0.48,3.45,12.62,450,223,30,-9999,6.8,-3.6,13.9,-0.3,-13.9,-13.9,-12.4,-14.5
GHCND:USC00354329,JOSEPH OR US,20100424,0.08,0.25,0.48,3.61,12.78,448,224,30,-9999,6.9,-3.6,14.0,-0.1,-13.8,-13.9,-12.4,-14.5
GHCND:USC00354329,JOSEPH OR US,20100425,0.08,0.25,0.51,3.78,12.95,446,225,30,-9999,7.1,-3.6,14.2,0.0,-13.8,-13.9,-12.4,-14.5
GHCND:USC00354329,JOSEPH OR US,20100426,0.08,0.25,0.51,3.94,13.11,444,225,30,-9999,7.2,-3.6,14.3,0.2,-13.8,-13.9,-12.4,-14.5
GHCND:USC00354329,JOSEPH OR US,20100427,0.08,0.25,0.51,4.09,13.26,443,226,31,-9999,7.4,-3.6,14.4,0.3,-13.8,-13.9,-12.4,-14.5
GHCND:USC00354329,JOSEPH OR US,20100428,0.08,0.25,0.51,4.27,13.44,442,227,31,-9999,7.6,-3.7,14.6,0.5,-13.8,-13.9,-12.4,-14.4
GHCND:USC00354329,JOSEPH OR US,20100429,0.08,0.25,0.53,4.42,13.59,440,228,32,-9999,7.7,-3.7,14.8,0.7,-13.8,-13.9,-12.4,-14.4
GHCND:USC00354329,JOSEPH OR US,20100430,0.08,0.25,0.53,4.57,13.74,439,228,33,-9999,7.9,-3.7,14.9,0.8,-13.8,-13.9,-12.4,-14.4
GHCND:USC00354329,JOSEPH OR US,20100501,0.08,0.28,0.53,0.18,13.92,438,229,33,3,8.1,-3.7,15.1,1.0,-13.8,-13.9,-12.4,-14.4
GHCND:USC00354329,JOSEPH OR US,20100502,0.08,0.28,0.56,0.33,14.07,436,230,34,4,8.2,-3.7,15.2,1.2,-13.8,-13.9,-12.4,-14.4
GHCND:USC00354329,JOSEPH OR US,20100503,0.08,0.28,0.56,0.51,14.25,435,231,35,4,8.4,-3.8,15.4,1.4,-13.8,-13.9,-12.3,-14.4
GHCND:USC00354329,JOSEPH OR US,20100504,0.08,0.28,0.56,0.69,14.43,433,232,35,4,8.6,-3.8,15.6,1.6,-13.7,-13.9,-12.3,-14.4
GHCND:USC00354329,JOSEPH OR US,20100505,0.08,0.28,0.58,0.84,14.58,431,232,36,4,8.7,-3.8,15.7,1.8,-13.7,-13.9,-12.3,-14.4
GHCND:USC00354329,JOSEPH OR US,20100506,0.08,0.28,0.58,0.99,14.73,429,233,37,4,8.9,-3.9,15.8,1.9,-13.7,-13.8,-12.3,-14.4
GHCND:USC00354329,JOSEPH OR US,20100507,0.08,0.28,0.58,1.17,14.91,426,233,37,4,9.1,-3.9,16.0,2.2,-13.7,-13.8,-12.2,-14.4
GHCND:USC00354329,JOSEPH OR US,20100508,0.08,0.28,0.58,1.32,15.06,424,233,38,5,9.2,-3.9,16.1,2.3,-13.7,-13.8,-12.2,-14.4
GHCND:USC00354329,JOSEPH OR US,20100509,0.08,0.30,0.61,1.52,15.27,423,233,39,5,9.4,-4.0,16.3,2.5,-13.6,-13.9,-12.2,-14.3
GHCND:USC00354329,JOSEPH OR US,20100510,0.08,0.30,0.61,1.70,15.44,422,234,39,5,9.6,-4.1,16.4,2.7,-13.6,-13.9,-12.2,-14.3
GHCND:USC00354329,JOSEPH OR US,20100511,0.08,0.30,0.61,1.88,15.62,421,235,40,5,9.7,-4.1,16.6,2.9,-13.6,-13.9,-12.2,-14.3
GHCND:USC00354329,JOSEPH OR US,20100512,0.08,0.30,0.61,2.08,15.82,420,236,40,6,9.9,-4.1,16.7,3.1,-13.6,-13.9,-12.2,-14.3
GHCND:USC00354329,JOSEPH OR US,20100513,0.08,0.30,0.61,2.29,16.03,420,237,41,6,10.1,-4.2,16.8,3.2,-13.6,-13.9,-12.2,-14.3
GHCND:USC00354329,JOSEPH OR US,20100514,0.08,0.30,0.64,2.49,16.23,420,238,42,6,10.2,-4.2,17.0,3.4,-13.6,-13.9,-12.2,-14.3
GHCND:USC00354329,JOSEPH OR US,20100515,0.08,0.30,0.64,2.69,16.43,422,239,42,6,10.3,-4.2,17.1,3.6,-13.6,-13.9,-12.2,-14.3
GHCND:USC00354329,JOSEPH OR US,20100516,0.08,0.30,0.64,2.90,16.64,422,240,43,7,10.5,-4.3,17.2,3.7,-13.6,-13.9,-12.2,-14.3
GHCND:USC00354329,JOSEPH OR US,20100517,0.08,0.30,0.64,3.10,16.84,424,241,43,7,10.7,-4.3,17.4,3.9,-13.6,-13.9,-12.2,-14.3
GHCND:USC00354329,JOSEPH OR US,20100518,0.08,0.30,0.64,3.30,17.04,425,241,43,7,10.8,-4.3,17.5,4.1,-13.6,-13.9,-12.2,-14.3
GHCND:USC00354329,JOSEPH OR US,20100519,0.08,0.30,0.64,3.51,17.25,425,241,44,7,10.9,-4.3,17.6,4.2,-13.6,-13.9,-12.2,-14.3
GHCND:USC00354329,JOSEPH OR US,20100520,0.08,0.30,0.64,3.71,17.45,426,242,44,8,11.1,-4.4,17.7,4.3,-13.6,-13.9,-12.2,-14.3
GHCND:USC00354329,JOSEPH OR US,20100521,0.08,0.30,0.66,3.91,17.65,427,242,44,8,11.2,-4.4,17.9,4.5,-13.6,-14.0,-12.2,-14.3
GHCND:USC00354329,JOSEPH OR US,20100522,0.08,0.30,0.66,4.11,17.86,428,242,44,8,11.3,-4.4,18.0,4.6,-13.6,-14.0,-12.2,-14.3
GHCND:USC00354329,JOSEPH OR US,20100523,0.08,0.30,0.66,4.32,18.06,428,241,45,8,11.4,-4.4,18.1,4.7,-13.6,-14.0,-12.2,-14.3
GHCND:USC00354329,JOSEPH OR US,20100524,0.08,0.30,0.66,4.55,18.29,428,240,45,8,11.5,-4.4,18.2,4.8,-13.6,-14.0,-12.2,-14.3
GHCND:USC00354329,JOSEPH OR US,20100525,0.08,0.30,0.66,4.75,18.49,428,239,45,8,11.6,-4.4,18.3,4.9,-13.6,-14.0,-12.3,-14.3
GHCND:USC00354329,JOSEPH OR US,20100526,0.08,0.30,0.66,4.95,18.69,427,238,45,8,11.7,-4.4,18.4,5.1,-13.6,-14.0,-12.3,-14.3
GHCND:USC00354329,JOSEPH OR US,20100527,0.08,0.30,0.66,5.18,18.92,426,237,44,8,11.8,-4.4,18.6,5.2,-13.6,-14.0,-12.3,-14.3
GHCND:USC00354329,JOSEPH OR US,20100528,0.08,0.30,0.66,5.41,19.15,426,236,44,8,11.9,-4.3,18.7,5.2,-13.6,-14.1,-12.3,-14.3
GHCND:USC00354329,JOSEPH OR US,20100529,0.08,0.28,0.64,5.64,19.38,424,234,44,8,12.1,-4.3,18.8,5.3,-13.7,-14.1,-12.4,-14.3
GHCND:USC00354329,JOSEPH OR US,20100530,0.08,0.28,0.64,5.87,19.61,423,232,43,8,12.2,-4.3,18.9,5.4,-13.7,-14.1,-12.4,-14.3
GHCND:USC00354329,JOSEPH OR US,20100531,0.08,0.28,0.64,6.10,19.84,422,230,43,8,12.2,-4.3,19.0,5.5,-13.7,-14.1,-12.4,-14.3
GHCND:USC00354329,JOSEPH OR US,20100601,0.08,0.28,0.64,0.20,20.04,420,227,43,8,12.3,-4.2,19.1,5.6,-13.7,-14.1,-12.4,-14.3
GHCND:USC00354329,JOSEPH OR US,20100602,0.08,0.28,0.64,0.41,20.24,419,225,42,8,12.4,-4.2,19.2,5.6,-13.8,-14.1,-12.5,-14.4
GHCND:USC00354329,JOSEPH OR US,20100603,0.08,0.28,0.61,0.64,20.47,417,223,42,8,12.5,-4.1,19.3,5.7,-13.8,-14.1,-12.6,-14.4
GHCND:USC00354329,JOSEPH OR US,20100604,0.08,0.28,0.61,0.84,20.68,416,220,42,8,12.6,-4.1,19.4,5.8,-13.8,-14.2,-12.6,-14.4
GHCND:USC00354329,JOSEPH OR US,20100605,0.08,0.25,0.61,1.02,20.85,415,218,41,8,12.7,-4.1,19.6,5.8,-13.8,-14.2,-12.6,-14.4
GHCND:USC00354329,JOSEPH OR US,20100606,0.08,0.25,0.61,1.22,21.06,413,216,41,8,12.8,-4.0,19.7,5.9,-13.8,-14.2,-12.7,-14.4
GHCND:USC00354329,JOSEPH OR US,20100607,0.08,0.25,0.61,1.40,21.23,411,213,41,7,12.9,-3.9,19.8,5.9,-13.9,-14.2,-12.7,-14.4
GHCND:USC00354329,JOSEPH OR US,20100608,0.08,0.25,0.61,1.55,21.39,408,210,40,7,13.0,-3.8,19.9,6.0,-13.9,-14.2,-12.7,-14.4
GHCND:USC00354329,JOSEPH OR US,20100609,0.08,0.25,0.61,1.73,21.56,405,206,39,7,13.1,-3.8,20.1,6.1,-13.9,-14.2,-12.8,-14.4
GHCND:USC00354329,JOSEPH OR US,20100610,0.08,0.25,0.61,1.90,21.74,401,203,39,7,13.2,-3.7,20.2,6.2,-13.9,-14.3,-12.8,-14.4
GHCND:USC00354329,JOSEPH OR US,20100611,0.08,0.23,0.58,2.06,21.89,397,199,38,7,13.3,-3.7,20.3,6.2,-13.9,-14.3,-12.8,-14.4
GHCND:USC00354329,JOSEPH OR US,20100612,0.08,0.23,0.58,2.21,22.05,392,195,37,7,13.4,-3.6,20.5,6.3,-13.9,-14.3,-12.8,-14.4
GHCND:USC00354329,JOSEPH OR US,20100613,0.08,0.23,0.58,2.34,22.17,386,191,36,7,13.5,-3.5,20.6,6.4,-14.0,-14.3,-12.9,-14.4
GHCND:USC00354329,JOSEPH OR US,20100614,0.08,0.23,0.58,2.49,22.33,380,186,35,7,13.6,-3.4,20.8,6.4,-14.0,-14.3,-12.9,-14.4
GHCND:USC00354329,JOSEPH OR US,20100615,0.08,0.23,0.56,2.62,22.45,373,181,34,6,13.7,-3.4,20.9,6.6,-14.0,-14.3,-12.9,-14.4
GHCND:USC00354329,JOSEPH OR US,20100616,0.08,0.20,0.56,2.77,22.61,367,177,33,6,13.8,-3.3,21.1,6.6,-14.0,-14.3,-12.9,-14.4
GHCND:USC00354329,JOSEPH OR US,20100617,0.08,0.20,0.56,2.92,22.76,361,173,32,6,14.0,-3.2,21.3,6.7,-14.0,-14.3,-12.9,-14.4
GHCND:USC00354329,JOSEPH OR US,20100618,0.08,0.20,0.56,3.05,22.89,354,169,31,6,14.1,-3.2,21.4,6.8,-14.0,-14.4,-12.9,-14.4
GHCND:USC00354329,JOSEPH OR US,20100619,0.08,0.20,0.53,3.20,23.04,348,165,30,6,14.3,-3.1,21.6,6.9,-14.0,-14.4,-13.0,-14.4
GHCND:USC00354329,JOSEPH OR US,20100620,0.08,0.20,0.53,3.35,23.19,341,160,29,6,14.4,-3.0,21.8,7.0,-14.0,-14.4,-13.0,-14.3
GHCND:USC00354329,JOSEPH OR US,20100621,0.08,0.20,0.53,3.48,23.32,334,156,28,6,14.6,-2.9,21.9,7.1,-14.0,-14.4,-13.0,-14.3
GHCND:USC00354329,JOSEPH OR US,20100622,0.05,0.18,0.53,3.61,23.44,328,152,28,6,14.7,-2.9,22.2,7.3,-13.9,-14.4,-13.0,-14.3
GHCND:USC00354329,JOSEPH OR US,20100623,0.05,0.18,0.53,3.71,23.55,321,148,27,6,14.8,-2.8,22.3,7.4,-13.9,-14.4,-13.0,-14.2
GHCND:USC00354329,JOSEPH OR US,20100624,0.05,0.18,0.51,3.84,23.67,314,144,26,6,15.0,-2.7,22.6,7.5,-13.9,-14.4,-13.1,-14.2
GHCND:USC00354329,JOSEPH OR US,20100625,0.05,0.18,0.51,3.94,23.77,307,140,25,6,15.2,-2.7,22.7,7.6,-13.9,-14.4,-13.1,-14.2
GHCND:USC00354329,JOSEPH OR US,20100626,0.05,0.18,0.51,4.04,23.88,300,136,25,6,15.3,-2.6,22.9,7.8,-13.9,-14.4,-13.1,-14.1
GHCND:USC00354329,JOSEPH OR US,20100627,0.05,0.18,0.51,4.17,24.00,293,132,24,6,15.5,-2.6,23.1,7.9,-13.9,-14.4,-13.1,-14.1
GHCND:USC00354329,JOSEPH OR US,20100628,0.05,0.18,0.51,4.27,24.10,286,128,23,6,15.7,-2.5,23.3,8.1,-13.9,-14.4,-13.1,-14.1
GHCND:USC00354329,JOSEPH OR US,20100629,0.05,0.15,0.51,4.34,24.18,279,125,23,6,15.9,-2.4,23.6,8.2,-13.9,-14.4,-13.1,-14.0
GHCND:USC00354329,JOSEPH OR US,20100630,0.05,0.15,0.51,4.44,24.28,271,121,22,6,16.1,-2.4,23.8,8.3,-13.9,-14.4,-13.1,-13.9
GHCND:USC00354329,JOSEPH OR US,20100701,0.05,0.15,0.51,0.15,24.43,264,117,21,6,16.2,-2.3,23.9,8.5,-13.8,-14.4,-13.1,-13.9
GHCND:USC00354329,JOSEPH OR US,20100702,0.05,0.15,0.51,0.28,24.56,257,113,20,6,16.4,-2.2,24.2,8.7,-13.8,-14.3,-13.2,-13.9
GHCND:USC00354329,JOSEPH OR US,20100703,0.05,0.15,0.51,0.41,24.69,249,110,19,6,16.6,-2.2,24.4,8.8,-13.8,-14.3,-13.2,-13.8
GHCND:USC00354329,JOSEPH OR US,20100704,0.05,0.15,0.48,0.56,24.84,242,106,18,5,16.8,-2.1,24.6,8.9,-13.8,-14.3,-13.2,-13.8
GHCND:USC00354329,JOSEPH OR US,20100705,0.05,0.15,0.48,0.69,24.97,235,103,17,5,16.9,-2.1,24.8,9.1,-13.8,-14.3,-13.2,-13.8
GHCND:USC00354329,JOSEPH OR US,20100706,0.05,0.15,0.48,0.84,25.12,228,100,16,5,17.1,-2.0,25.0,9.2,-13.9,-14.3,-13.2,-13.8
GHCND:USC00354329,JOSEPH OR US,20100707,0.05,0.15,0.48,0.97,25.25,221,97,16,5,17.3,-1.9,25.2,9.4,-13.9,-14.3,-13.3,-13.8
GHCND:USC00354329,JOSEPH OR US,20100708,0.05,0.15,0.48,1.09,25.37,215,94,15,5,17.5,-1.9,25.4,9.6,-13.9,-14.3,-13.3,-13.7
GHCND:USC00354329,JOSEPH OR US,20100709,0.05,0.15,0.48,1.22,25.50,209,92,14,5,17.7,-1.8,25.6,9.7,-13.9,-14.3,-13.3,-13.7
GHCND:USC00354329,JOSEPH OR US,20100710,0.05,0.18,0.48,1.32,25.60,203,90,14,5,17.8,-1.8,25.8,9.8,-13.9,-14.3,-13.4,-13.7
GHCND:USC00354329,JOSEPH OR US,20100711,0.05,0.18,0.48,1.45,25.73,198,88,13,5,18.0,-1.7,26.0,9.9,-13.9,-14.2,-13.4,-13.7
GHCND:USC00354329,JOSEPH OR US,20100712,0.05,0.18,0.48,1.55,25.83,193,87,13,5,18.2,-1.7,26.2,10.1,-13.9,-14.2,-13.4,-13.7
GHCND:USC00354329,JOSEPH OR US,20100713,0.05,0.18,0.48,1.65,25.93,189,86,13,4,18.3,-1.6,26.4,10.2,-14.0,-14.2,-13.4,-13.7